Find Starlink 31844

NORAD ID: 60583 Int'l Des: 2024-150 Owner: SPXS Country: US Constellation: starlink operational
LEOCIRCULAR

Live Position

Loading 3D Globe...

About Starlink 31844

Description loading...

Upcoming Passes

Passes for default location (London). Set your location on the main map for personalized predictions.

Altitude History

Loading altitude history...

Two-Line Element Set

1 60583U 24150A 26130.38374641 .00001804 00000-0 69864-4 0 9992
2 60583 53.1619 19.9964 0001241 62.7023 297.4105 15.31702697 97493
Epoch: May 10, 2026 • Age: 11 hours

Current Status

Altitude 472.0 km
Velocity 7.63 km/s
Sub-Earth Point -4.47°S, 156.32°W
Launch Date Aug 20, 2024
Age 1.7 years
Type internet

Technical Details

Classification Payload
Mass 730.00 kg
Dry Mass 700.00 kg
Total Mass 730.00 kg
Length 0.30 m
Diameter 4.10 m
Span 29.00 m
Shape Box + pan
Manufacturer SPXS
Bus Type Starlink V2M
Phase Status In Orbit
Owner/State SPXS/US

Most Searched